Location: Fornova de Taro
(44.7000°N, 10.1000°E)
Time: 00:28:32
(UTC+00:00)

Cosmos 2251 Rocket - Pass Details

Date: 26 May 2022
Orbit: 764 x 791 km, 74.0° (Epoch: 02 July)

Event Time Altitude Azimuth Distance (km) Brightness Sun altitude
Rises 01:57:46 0° 339° (NNW) 3,247 7.2 -14.6°
Reaches altitude 10° 02:00:09 10° 340° (NNW) 2,320 6.4 -14.4°
Maximum altitude 02:05:26 85° 68° (ENE) 782 3.6 -13.8°
Drops below altitude 10° 02:10:43 10° 158° (SSE) 2,320 5.7 -13.2°
Sets 02:13:05 0° 159° (SSE) 3,248 6.5 -12.9°
